This is the latest recevied weather packets stored in our database for station/object KMASWX. If no packets are shown the sender has not sent any weather packets the latest 1 day(s).
| Time | Temp. | Humidity | Pressure | Rain* | Wind** | Luminosity | Snow |
|---|---|---|---|---|---|---|---|
| 1778017636 | 26.67° C | 19% | - | 0 mm | 1.79 m/s, 191° | - | - |
| 1778017026 | 26.67° C | 23% | - | 0 mm | 0.89 m/s, 254° | - | - |
| 1778016722 | 26.11° C | 19% | - | 0 mm | 1.79 m/s, 158° | - | - |
| 1778016112 | 26.67° C | 20% | - | 0 mm | 2.68 m/s, 188° | - | - |
| 1778015808 | 26.67° C | 19% | - | 0 mm | 1.79 m/s, 239° | - | - |
| 1778015504 | 27.22° C | 19% | - | 0 mm | 2.24 m/s, 157° | - | - |
| 1778015198 | 26.67° C | 19% | - | 0 mm | 1.79 m/s, 40° | - | - |
| 1778014591 | 26.11° C | 21% | - | 0 mm | 2.68 m/s, 171° | - | - |
| 1778014283 | 26.11° C | 19% | - | 0 mm | 1.79 m/s, 158° | - | - |
| 1778013980 | 26.67° C | 19% | - | 0 mm | 0 m/s | - | - |
| 1778013676 | 25.56° C | 20% | - | 0 mm | 0 m/s | - | - |
| 1778013372 | 25.56° C | 21% | - | 0 mm | 2.24 m/s, 150° | - | - |
| 1778013066 | 25.56° C | 20% | - | 0 mm | 0.89 m/s, 30° | - | - |
| 1778012762 | 26.11° C | 20% | - | 0 mm | 2.24 m/s, 240° | - | - |
| 1778012458 | 25.56° C | 21% | - | 0 mm | 0.89 m/s, 222° | - | - |
| 1778012151 | 25° C | 20% | - | 0 mm | 1.34 m/s, 146° | - | - |
| 1778011848 | 25.56° C | 20% | - | 0 mm | 2.24 m/s, 104° | - | - |
| 1778011544 | 25° C | 19% | - | 0 mm | 1.34 m/s, 144° | - | - |
| 1778011237 | 25° C | 20% | - | 0 mm | 0.45 m/s, 119° | - | - |
| 1778010934 | 25° C | 20% | - | 0 mm | 2.24 m/s, 139° | - | - |
| 1778010326 | 23.89° C | 21% | - | 0 mm | 0.45 m/s, 28° | - | - |
| 1778010023 | 23.89° C | 21% | - | 0 mm | 1.34 m/s, 112° | - | - |
| 1778009413 | 23.33° C | 23% | - | 0 mm | 3.58 m/s, 153° | - | - |
| 1778009108 | 23.89° C | 21% | - | 0 mm | 0 m/s | - | - |
| 1778008802 | 23.89° C | 22% | - | 0 mm | 1.79 m/s, 127° | - | - |
* Rain latest 24 hours (hover to see other rain measurements)
** Current wind speed in m/s (hover to see current wind gust speed)